Change the Weather History Date:

Friday, October 18, 2013

  Actual Average Record
Temperature  
Mean Temperature 56 °F -  
Max Temperature 71 °F 60 °F 77 °F (2007)
Min Temperature 41 °F 39 °F 21 °F (1978)
Degree Days  
Heating Degree Days 10    
Growing Degree Days 6 (Base 50)    
Moisture  
Dew Point 52 °F    
Average Humidity 74    
Maximum Humidity 93    
Minimum Humidity 39    
Precipitation  
Precipitation 0.00 in - - ()
Sea Level Pressure  
Sea Level Pressure 29.75 in    
Wind  
Wind Speed 7 mph (WSW)    
Max Wind Speed 14 mph    
Max Gust Speed 23 mph    
Visibility 9 miles    
Events Rain    
Averages and records for this station are not official NWS values.
T = Trace of Precipitation, MM = Missing Value Source: NWS Daily Summary

Daily Weather History Graph

Daily Weather History Graph

Search for Another Location

Airport or City:

Trip Planner

Search our weather history database for the weather conditions in past years. The results will help you decide how hot, cold, wet, or windy it might be!

Date:

Astronomy

Oct. 18, 2013 Rise Set
Actual Time 7:00 AM EDT 5:57 PM EDT
Civil Twilight 6:31 AM EDT 6:25 PM EDT
Nautical Twilight 5:59 AM EDT 6:58 PM EDT
Astronomical Twilight 5:27 AM EDT 7:30 PM EDT
Moon 5:45 PM EDT (10/18) 6:32 AM EDT (10/18)
Length of Visible Light 11h 53m
Length of Day
10h 57m
Full, 100% of the Moon is Illuminated
Oct 18
Full
Oct 18
Full
Oct 26
Last Quarter
Nov 3
New
Nov 10
First Quarter

Hourly Weather History & Observations

Time (EDT) Temp. Dew Point Humidity Pressure Visibility Wind Dir Wind Speed Gust Speed Precip Events Conditions
12:12 AM 62.1 °F 60.1 °F 93% 29.74 in 7.0 mi SSW 3.5 mph - 0.00 in Rain Light Rain
12:52 AM 63.0 °F 60.1 °F 90% 29.73 in 9.0 mi SSW 6.9 mph - 0.00 in   Overcast
1:52 AM 63.0 °F 60.1 °F 90% 29.71 in 9.0 mi SSW 6.9 mph - N/A   Overcast
2:06 AM 64.0 °F 60.1 °F 87% 29.71 in 9.0 mi SSW 8.1 mph - N/A   Overcast
2:52 AM 64.0 °F 60.1 °F 87% 29.68 in 10.0 mi South 6.9 mph - N/A   Overcast
3:11 AM 64.9 °F 60.1 °F 84% 29.67 in 10.0 mi SSW 9.2 mph - N/A   Overcast
3:18 AM 64.9 °F 60.1 °F 84% 29.67 in 10.0 mi SSW 10.4 mph - N/A   Overcast
3:47 AM 66.2 °F 60.8 °F 83% 29.66 in 10.0 mi SSW 9.2 mph 21.9 mph N/A   Overcast
3:52 AM 66.0 °F 61.0 °F 84% 29.65 in 10.0 mi South 11.5 mph 20.7 mph N/A   Overcast
4:18 AM 66.0 °F 62.1 °F 87% 29.65 in 7.0 mi SSW 11.5 mph 23.0 mph 0.00 in Rain Light Rain
4:52 AM 66.0 °F 62.1 °F 87% 29.64 in 10.0 mi SSW 10.4 mph - 0.00 in   Overcast
5:52 AM 64.9 °F 62.1 °F 90% 29.64 in 10.0 mi SSW 8.1 mph - N/A   Overcast
6:27 AM 64.9 °F 62.1 °F 90% 29.64 in 10.0 mi SW 6.9 mph - N/A   Overcast
6:52 AM 64.0 °F 61.0 °F 90% 29.65 in 10.0 mi SW 5.8 mph - N/A   Mostly Cloudy
7:09 AM 64.0 °F 61.0 °F 90% 29.65 in 10.0 mi SW 4.6 mph - N/A   Scattered Clouds
7:52 AM 64.9 °F 60.1 °F 84% 29.68 in 10.0 mi West 9.2 mph - N/A   Partly Cloudy
8:52 AM 64.0 °F 50.0 °F 60% 29.72 in 10.0 mi WNW 13.8 mph 20.7 mph N/A   Clear
9:52 AM 66.0 °F 50.0 °F 56% 29.74 in 10.0 mi WNW 8.1 mph 20.7 mph N/A   Clear
10:52 AM 68.0 °F 46.9 °F 47% 29.75 in 10.0 mi NW 11.5 mph 23.0 mph N/A   Clear
11:52 AM 70.0 °F 46.9 °F 44% 29.76 in 10.0 mi West 6.9 mph 18.4 mph N/A   Clear
12:52 PM 70.0 °F 44.1 °F 39% 29.75 in 10.0 mi West 11.5 mph 21.9 mph N/A   Clear
1:52 PM 70.0 °F 44.1 °F 39% 29.75 in 10.0 mi West 8.1 mph 20.7 mph N/A   Clear
2:52 PM 70.0 °F 44.1 °F 39% 29.77 in 10.0 mi WNW 13.8 mph 21.9 mph N/A   Clear
3:52 PM 69.1 °F 44.1 °F 40% 29.78 in 10.0 mi WNW 12.7 mph 17.3 mph N/A   Clear
4:52 PM 66.9 °F 42.1 °F 40% 29.79 in 10.0 mi West 10.4 mph 19.6 mph N/A   Clear
5:52 PM 64.0 °F 42.1 °F 45% 29.82 in 10.0 mi West 6.9 mph - N/A   Clear
6:52 PM 52.0 °F 45.0 °F 77% 29.84 in 10.0 mi West 3.5 mph - N/A   Clear
7:52 PM 50.0 °F 44.1 °F 80% 29.86 in 10.0 mi WSW 3.5 mph - N/A   Clear
8:52 PM 46.0 °F 43.0 °F 89% 29.88 in 10.0 mi Calm Calm - N/A   Clear
9:52 PM 44.1 °F 41.0 °F 89% 29.90 in 10.0 mi Calm Calm - N/A   Clear
10:52 PM 42.1 °F 39.9 °F 92% 29.91 in 10.0 mi Calm Calm - N/A   Clear
11:38 PM 41.0 °F 37.9 °F 89% 29.92 in 1.8 mi Calm Calm - N/A   Clear
11:52 PM 41.0 °F 39.0 °F 93% 29.93 in 3.0 mi Calm Calm - N/A   Clear